Llano, TX

2:53 PM CDT on July 21, 2017 (GMT -0500)
Llano

Weather History for KAQO - January, 2014

Change the Weather History Date:

Sunday, January 12, 2014

  Actual Average (KBMQ) Record (KBMQ)
Temperature  
Mean Temperature 52 °F -  
Max Temperature 73 °F 57 °F 77 °F (2014)
Min Temperature 32 °F 37 °F 21 °F (1997)
Degree Days  
Heating Degree Days 12    
Growing Degree Days 2 (Base 50)    
Moisture  
Dew Point 40 °F    
Average Humidity 62    
Maximum Humidity 93    
Minimum Humidity 30    
Precipitation  
Precipitation 0.00 in - - ()
Sea Level Pressure  
Sea Level Pressure 30.02 in    
Wind  
Wind Speed 4 mph (SSW)    
Max Wind Speed 20 mph    
Max Gust Speed 25 mph    
Visibility 10 miles    
Events      
Averages and records for this station are not official NWS values.
T = Trace of Precipitation, MM = Missing Value Source: NWS Daily Summary

Daily Weather History Graph

Daily Weather History Graph

Search for Another Location

Airport or City:

Trip Planner

Search our weather history database for the weather conditions in past years. The results will help you decide how hot, cold, wet, or windy it might be!

Date:

Astronomy

Jan. 12, 2014 Rise Set
Actual Time 7:33 AM CST 5:53 PM CST
Civil Twilight 7:07 AM CST 6:19 PM CST
Nautical Twilight 6:37 AM CST 6:48 PM CST
Astronomical Twilight 6:08 AM CST 7:18 PM CST
Moon 3:20 PM CST (1/12) 4:34 AM CST (1/12)
Length of Visible Light 11h 12m
Length of Day
10h 19m
Waxing Gibbous, 90% of the Moon is Illuminated
Jan 12
Waxing Gibbous
Jan 15
Full
Jan 23
Last Quarter
Jan 30
New
Feb 6
First Quarter

Hourly Weather History & Observations

Time (CST) Temp. Windchill Dew Point Humidity Pressure Visibility Wind Dir Wind Speed Gust Speed Precip Events Conditions
12:15 AM 37.4 °F - 30.2 °F 75% 30.14 in 10.0 mi Calm Calm - N/A   Clear
12:35 AM 37.4 °F - 30.2 °F 75% 30.13 in 10.0 mi Calm Calm - N/A   Clear
12:55 AM 37.4 °F - 30.2 °F 75% 30.13 in 10.0 mi Calm Calm - N/A   Clear
1:15 AM 37.4 °F 32.8 °F 30.2 °F 75% 30.12 in 10.0 mi North 5.8 mph - N/A   Clear
1:35 AM 37.4 °F 33.8 °F 30.2 °F 75% 30.12 in 10.0 mi North 4.6 mph - N/A   Clear
1:55 AM 37.4 °F - 30.2 °F 75% 30.12 in 10.0 mi Calm Calm - N/A   Clear
2:15 AM 35.6 °F - 30.2 °F 81% 30.11 in 10.0 mi Calm Calm - N/A   Clear
2:35 AM 35.6 °F - 30.2 °F 81% 30.11 in 10.0 mi Calm Calm - N/A   Clear
2:55 AM 35.6 °F - 30.2 °F 81% 30.10 in 10.0 mi Calm Calm - N/A   Clear
3:15 AM 35.6 °F 31.7 °F 30.2 °F 81% 30.10 in 10.0 mi North 4.6 mph - N/A   Clear
3:35 AM 35.6 °F - 30.2 °F 81% 30.10 in 10.0 mi Calm Calm - N/A   Clear
3:55 AM 35.6 °F - 30.2 °F 81% 30.10 in 10.0 mi Calm Calm - N/A   Clear
4:15 AM 35.6 °F - 30.2 °F 81% 30.09 in 10.0 mi Calm Calm - N/A   Clear
4:35 AM 35.6 °F - 30.2 °F 81% 30.08 in 10.0 mi Calm Calm - N/A   Clear
4:55 AM 37.4 °F - 30.2 °F 75% 30.09 in 10.0 mi Calm Calm - N/A   Clear
5:15 AM 37.4 °F - 30.2 °F 75% 30.09 in 10.0 mi Calm Calm - N/A   Clear
5:35 AM 33.8 °F - 30.2 °F 87% 30.08 in 10.0 mi Calm Calm - N/A   Clear
5:55 AM 35.6 °F - 30.2 °F 81% 30.08 in 10.0 mi Calm Calm - N/A   Clear
6:15 AM 33.8 °F - 30.2 °F 87% 30.08 in 10.0 mi Calm Calm - N/A   Clear
6:35 AM 33.8 °F - 30.2 °F 87% 30.07 in 10.0 mi Calm Calm - N/A   Clear
6:55 AM 32.0 °F - 28.4 °F 87% 30.07 in 10.0 mi Calm Calm - N/A   Clear
7:15 AM 32.0 °F - 28.4 °F 87% 30.08 in 10.0 mi Calm Calm - N/A   Clear
7:35 AM 33.8 °F - 30.2 °F 87% 30.08 in 10.0 mi Calm Calm - N/A   Clear
7:55 AM 32.0 °F - 30.2 °F 93% 30.09 in 10.0 mi Calm Calm - N/A   Clear
8:15 AM 35.6 °F - 32.0 °F 87% 30.10 in 10.0 mi Calm Calm - N/A   Clear
8:35 AM 44.6 °F 42.2 °F 33.8 °F 66% 30.11 in 10.0 mi South 4.6 mph - N/A   Clear
8:55 AM 53.6 °F - 32.0 °F 44% 30.11 in 10.0 mi South 6.9 mph - N/A   Clear
9:15 AM 57.2 °F - 33.8 °F 41% 30.11 in 10.0 mi SSW 10.4 mph - N/A   Clear
9:35 AM 60.8 °F - 33.8 °F 36% 30.11 in 10.0 mi South 11.5 mph 18.4 mph N/A   Clear
9:55 AM 62.6 °F - 33.8 °F 34% 30.12 in 10.0 mi SSW 16.1 mph 19.6 mph N/A   Clear
10:15 AM 64.4 °F - 32.0 °F 30% 30.11 in 10.0 mi SSW 13.8 mph 18.4 mph N/A   Clear
10:35 AM 66.2 °F - 33.8 °F 30% 30.11 in 10.0 mi SSW 15.0 mph 23.0 mph N/A   Clear
10:55 AM 66.2 °F - 33.8 °F 30% 30.10 in 10.0 mi South 11.5 mph 18.4 mph N/A   Clear
11:15 AM 68.0 °F - 35.6 °F 30% 30.08 in 10.0 mi SSW 16.1 mph 20.7 mph N/A   Clear
11:35 AM 66.2 °F - 37.4 °F 35% 30.08 in 10.0 mi SSW 12.7 mph 19.6 mph N/A   Clear
11:55 AM 66.2 °F - 37.4 °F 35% 30.06 in 10.0 mi SSW 13.8 mph 18.4 mph N/A   Clear
12:15 PM 66.2 °F - 39.2 °F 37% 30.04 in 10.0 mi SSW 9.2 mph - N/A   Clear
12:35 PM 69.8 °F - 41.0 °F 35% 30.02 in 10.0 mi SSW 12.7 mph - N/A   Clear
12:55 PM 69.8 °F - 42.8 °F 38% 30.00 in 10.0 mi South 8.1 mph - N/A   Clear
1:15 PM 69.8 °F - 44.6 °F 40% 29.98 in 10.0 mi SW 19.6 mph 23.0 mph N/A   Clear
1:35 PM 68.0 °F - 46.4 °F 46% 29.97 in 10.0 mi SSW 17.3 mph 21.9 mph N/A   Clear
1:55 PM 69.8 °F - 46.4 °F 43% 29.96 in 10.0 mi SSW 16.1 mph 24.2 mph N/A   Clear
2:15 PM 69.8 °F - 46.4 °F 43% 29.96 in 10.0 mi SSW 17.3 mph 21.9 mph N/A   Partly Cloudy
2:35 PM 71.6 °F - 44.6 °F 38% 29.94 in 10.0 mi SW 15.0 mph - N/A   Partly Cloudy
2:55 PM 73.4 °F - 44.6 °F 36% 29.93 in 10.0 mi SSW 16.1 mph 20.7 mph N/A   Clear
3:15 PM 69.8 °F - 44.6 °F 40% 29.93 in 10.0 mi South 17.3 mph 21.9 mph N/A   Clear
3:35 PM 69.8 °F - 42.8 °F 38% 29.92 in 10.0 mi SSW 16.1 mph 23.0 mph N/A   Clear
3:55 PM 69.8 °F - 42.8 °F 38% 29.92 in 10.0 mi SSW 17.3 mph 25.3 mph N/A   Clear
4:15 PM 69.8 °F - 42.8 °F 38% 29.91 in 10.0 mi SSW 12.7 mph 25.3 mph N/A   Clear
4:35 PM 68.0 °F - 44.6 °F 43% 29.92 in 10.0 mi South 11.5 mph - N/A   Clear
4:55 PM 66.2 °F - 44.6 °F 46% 29.91 in 10.0 mi South 8.1 mph - N/A   Clear
5:15 PM 66.2 °F - 46.4 °F 49% 29.92 in 10.0 mi South 8.1 mph - N/A   Clear
5:35 PM 66.2 °F - 46.4 °F 49% 29.92 in 10.0 mi SSW 10.4 mph - N/A   Clear
5:55 PM 64.4 °F - 46.4 °F 52% 29.92 in 10.0 mi SSW 8.1 mph - N/A   Clear
6:15 PM 64.4 °F - 46.4 °F 52% 29.91 in 10.0 mi South 8.1 mph - N/A   Clear
6:35 PM 64.4 °F - 48.2 °F 56% 29.92 in 10.0 mi SSW 8.1 mph - N/A   Clear
6:55 PM 62.6 °F - 48.2 °F 59% 29.93 in 10.0 mi South 4.6 mph - N/A   Clear
7:15 PM 60.8 °F - 48.2 °F 63% 29.92 in 10.0 mi Calm Calm - N/A   Clear
7:35 PM 62.6 °F - 50.0 °F 63% 29.92 in 10.0 mi SSE 5.8 mph - N/A   Clear
7:55 PM 62.6 °F - 51.8 °F 68% 29.91 in 10.0 mi Calm Calm - N/A   Clear
8:15 PM 62.6 °F - 51.8 °F 68% 29.91 in 10.0 mi SSW 5.8 mph - N/A   Clear
8:35 PM 62.6 °F - 51.8 °F 68% 29.91 in 10.0 mi Calm Calm - N/A   Clear
8:55 PM 60.8 °F - 51.8 °F 72% 29.92 in 10.0 mi Calm Calm - N/A   Clear
9:15 PM 57.2 °F - 50.0 °F 77% 29.93 in 10.0 mi Calm Calm - N/A   Clear
9:35 PM 55.4 °F - 50.0 °F 82% 29.93 in 10.0 mi Calm Calm - N/A   Clear
9:55 PM 57.2 °F - 50.0 °F 77% 29.93 in 10.0 mi Calm Calm - N/A   Clear
10:15 PM 57.2 °F - 51.8 °F 82% 29.93 in 10.0 mi Calm Calm - N/A   Clear
10:35 PM 60.8 °F - 51.8 °F 72% 29.93 in 10.0 mi SSW 5.8 mph - N/A   Clear
10:55 PM 60.8 °F - 53.6 °F 77% 29.93 in 10.0 mi South 5.8 mph - N/A   Clear
11:15 PM 60.8 °F - 53.6 °F 77% 29.92 in 10.0 mi South 4.6 mph - N/A   Clear
11:35 PM 62.6 °F - 53.6 °F 72% 29.91 in 10.0 mi South 4.6 mph - N/A   Clear
11:55 PM 60.8 °F - 55.4 °F 82% 29.90 in 10.0 mi South 4.6 mph - N/A   Clear